When you browse on this site, cookies collect data to enhance your experience and personalize the content and advertising you see.
Visit our Privacy Policy to learn more. By continuing to use the site, you agree to this use of cookies and data.
  • In Italy
  • List of Countries
  • For 7 days
  • Water Temperature
  • Satellite Maps
  • Weather Map
  • Weather Widgets
  • user-avatar
    Login

    Hourly Weather Shaki

    Today, 12 December, Wednesday

    Time Temperature Precipitation Wind Pressure Humidity
    00:00 +10°C° 0 mm 3 mps 731 mmHg 46%
    01:00 +10°C° 0 mm 3 mps 732 mmHg 46%
    02:00 +10°C° 0 mm 3 mps 732 mmHg 46%
    03:00 +10°C° 0 mm 3 mps 732 mmHg 47%
    04:00 +10°C° 0 mm 3 mps 733 mmHg 47%
    05:00 +10°C° 0 mm 3 mps 733 mmHg 48%
    06:00 +10°C° 0 mm 3 mps 733 mmHg 49%
    07:00 +10°C° 0 mm 3 mps 733 mmHg 48%
    08:00 +11°C° 0 mm 3 mps 733 mmHg 47%
    09:00 +13°C° 0 mm 2 mps 733 mmHg 46%
    10:00 +14°C° 0 mm 2 mps 733 mmHg 44%
    11:00 +14°C° 0 mm 2 mps 732 mmHg 41%
    12:00 +15°C° 0 mm 2 mps 732 mmHg 38%
    13:00 +15°C° 0 mm 2 mps 731 mmHg 40%
    14:00 +15°C° 0 mm 2 mps 730 mmHg 41%
    15:00 +15°C° 0 mm 2 mps 730 mmHg 43%
    16:00 +14°C° 0 mm 2 mps 730 mmHg 45%
    17:00 +13°C° 0 mm 2 mps 730 mmHg 47%
    18:00 +12°C° 0 mm 2 mps 730 mmHg 49%
    19:00 +12°C° 0.1 mm 2 mps 730 mmHg 51%
    20:00 +12°C° 0.1 mm 2 mps 730 mmHg 52%
    21:00 +12°C° 0.1 mm 2 mps 729 mmHg 53%
    22:00 +12°C° 0 mm 2 mps 729 mmHg 54%
    23:00 +12°C° 0 mm 2 mps 729 mmHg 55%

    Tomorrow, 13 December, Thursday

    Time Temperature Precipitation Wind Pressure Humidity
    00:00 +10°C° 0 mm 2 mps 729 mmHg 56%
    01:00 +10°C° 0 mm 2 mps 730 mmHg 56%
    02:00 +11°C° 0 mm 3 mps 730 mmHg 56%
    03:00 +11°C° 0 mm 3 mps 730 mmHg 57%
    04:00 +10°C° 0.1 mm 3 mps 730 mmHg 58%
    05:00 +10°C° 0.1 mm 3 mps 730 mmHg 59%
    06:00 +10°C° 0.1 mm 3 mps 731 mmHg 59%
    07:00 +10°C° 0.1 mm 3 mps 731 mmHg 58%
    08:00 +10°C° 0.1 mm 3 mps 731 mmHg 57%
    09:00 +11°C° 0.1 mm 3 mps 732 mmHg 56%
    10:00 +11°C° 0 mm 3 mps 732 mmHg 50%
    11:00 +12°C° 0 mm 4 mps 732 mmHg 45%
    12:00 +13°C° 0 mm 4 mps 732 mmHg 39%
    13:00 +12°C° 0 mm 4 mps 733 mmHg 40%
    14:00 +12°C° 0 mm 4 mps 733 mmHg 41%
    15:00 +12°C° 0 mm 5 mps 734 mmHg 42%
    16:00 +11°C° 0 mm 4 mps 734 mmHg 44%
    17:00 +8°C° 0 mm 4 mps 735 mmHg 46%
    18:00 +7°C° 0 mm 4 mps 736 mmHg 49%
    19:00 +7°C° 0 mm 4 mps 736 mmHg 48%
    20:00 +7°C° 0 mm 3 mps 737 mmHg 47%
    21:00 +7°C° 0 mm 3 mps 737 mmHg 46%
    22:00 +7°C° 0 mm 3 mps 738 mmHg 45%
    23:00 +5°C° 0 mm 3 mps 738 mmHg 44%

    Day after tomorrow, 14 December, Friday

    Time Temperature Precipitation Wind Pressure Humidity
    00:00 +5°C° 0 mm 3 mps 739 mmHg 44%
    01:00 +5°C° 0 mm 3 mps 739 mmHg 43%
    02:00 +4°C° 0 mm 3 mps 739 mmHg 43%
    03:00 +4°C° 0 mm 3 mps 740 mmHg 43%
    04:00 +4°C° 0 mm 3 mps 740 mmHg 44%
    05:00 +3°C° 0 mm 3 mps 740 mmHg 45%
    06:00 +4°C° 0 mm 2 mps 741 mmHg 45%
    07:00 +5°C° 0 mm 2 mps 741 mmHg 44%
    08:00 +6°C° 0 mm 2 mps 741 mmHg 42%
    09:00 +6°C° 0 mm 2 mps 742 mmHg 40%
    10:00 +7°C° 0 mm 2 mps 741 mmHg 37%
    11:00 +8°C° 0 mm 2 mps 741 mmHg 34%
    12:00 +9°C° 0 mm 2 mps 741 mmHg 30%
    13:00 +9°C° 0 mm 2 mps 741 mmHg 30%
    14:00 +9°C° 0 mm 2 mps 741 mmHg 30%
    15:00 +9°C° 0 mm 2 mps 741 mmHg 30%
    16:00 +8°C° 0 mm 2 mps 741 mmHg 32%
    17:00 +7°C° 0 mm 2 mps 741 mmHg 34%
    18:00 +6°C° 0 mm 2 mps 742 mmHg 37%
    19:00 +6°C° 0 mm 2 mps 742 mmHg 39%
    20:00 +6°C° 0 mm 2 mps 742 mmHg 42%
    21:00 +6°C° 0 mm 2 mps 742 mmHg 44%
    22:00 +6°C° 0 mm 2 mps 742 mmHg 46%
    23:00 +5°C° 0 mm 2 mps 742 mmHg 48%

    15 December, Saturday

    Time Temperature Precipitation Wind Pressure Humidity
    00:00 +5°C° 0 mm 2 mps 742 mmHg 49%
    01:00 +5°C° 0 mm 2 mps 742 mmHg 50%
    02:00 +4°C° 0 mm 2 mps 743 mmHg 50%
    03:00 +4°C° 0 mm 2 mps 743 mmHg 51%
    04:00 +4°C° 0 mm 2 mps 743 mmHg 50%
    05:00 +3°C° 0 mm 2 mps 743 mmHg 50%
    06:00 +3°C° 0 mm 2 mps 744 mmHg 49%
    07:00 +4°C° 0 mm 2 mps 744 mmHg 46%
    08:00 +4°C° 0 mm 2 mps 744 mmHg 44%
    09:00 +5°C° 0 mm 2 mps 745 mmHg 41%
    10:00 +6°C° 0 mm 2 mps 744 mmHg 38%
    11:00 +7°C° 0 mm 3 mps 744 mmHg 35%
    12:00 +8°C° 0 mm 3 mps 744 mmHg 32%
    13:00 +8°C° 0 mm 3 mps 744 mmHg 32%
    14:00 +8°C° 0 mm 3 mps 744 mmHg 32%
    15:00 +8°C° 0 mm 2 mps 744 mmHg 31%
    16:00 +7°C° 0 mm 2 mps 744 mmHg 33%
    17:00 +6°C° 0 mm 2 mps 745 mmHg 35%
    18:00 +5°C° 0 mm 2 mps 745 mmHg 36%
    19:00 +5°C° 0 mm 1 mps 745 mmHg 36%
    20:00 +5°C° 0 mm 1 mps 746 mmHg 35%
    21:00 +5°C° 0 mm 1 mps 746 mmHg 35%
    22:00 +5°C° 0 mm 1 mps 746 mmHg 34%
    23:00 +4°C° 0 mm 1 mps 746 mmHg 34%

    16 December, Sunday

    Time Temperature Precipitation Wind Pressure Humidity
    00:00 +4°C° 0 mm 1 mps 746 mmHg 34%
    01:00 +4°C° 0 mm 1 mps 745 mmHg 34%
    02:00 +4°C° 0 mm 1 mps 745 mmHg 35%
    03:00 +4°C° 0 mm 1 mps 745 mmHg 36%
    04:00 +4°C° 0 mm 1 mps 745 mmHg 37%
    05:00 +4°C° 0 mm 1 mps 745 mmHg 37%
    06:00 +4°C° 0 mm 1 mps 745 mmHg 38%
    07:00 +5°C° 0 mm 1 mps 745 mmHg 37%
    08:00 +6°C° 0 mm 1 mps 745 mmHg 36%
    09:00 +7°C° 0 mm 1 mps 746 mmHg 35%
    10:00 +8°C° 0 mm 1 mps 745 mmHg 35%
    11:00 +9°C° 0 mm 1 mps 745 mmHg 34%
    12:00 +9°C° 0 mm 1 mps 744 mmHg 34%
    13:00 +9°C° 0 mm 1 mps 744 mmHg 35%
    14:00 +9°C° 0 mm 1 mps 744 mmHg 36%
    15:00 +9°C° 0 mm 1 mps 744 mmHg 38%
    16:00 +8°C° 0 mm 1 mps 744 mmHg 40%
    17:00 +7°C° 0 mm 1 mps 744 mmHg 41%
    18:00 +6°C° 0 mm 1 mps 744 mmHg 43%
    19:00 +6°C° 0 mm 1 mps 744 mmHg 43%
    20:00 +6°C° 0 mm 1 mps 744 mmHg 43%
    21:00 +6°C° 0 mm 1 mps 743 mmHg 43%
    22:00 +6°C° 0 mm 1 mps 743 mmHg 43%
    23:00 +6°C° 0 mm 1 mps 743 mmHg 43%

    17 December, Monday

    Time Temperature Precipitation Wind Pressure Humidity
    00:00 +6°C° 0 mm 1 mps 743 mmHg 43%
    01:00 +5°C° 0 mm 2 mps 742 mmHg 44%
    02:00 +5°C° 0 mm 2 mps 742 mmHg 45%
    03:00 +5°C° 0 mm 2 mps 742 mmHg 46%
    04:00 +4°C° 0 mm 2 mps 742 mmHg 47%
    05:00 +4°C° 0 mm 2 mps 742 mmHg 47%
    06:00 +4°C° 0 mm 2 mps 741 mmHg 48%
    07:00 +5°C° 0 mm 2 mps 741 mmHg 46%
    08:00 +7°C° 0 mm 1 mps 741 mmHg 44%
    09:00 +8°C° 0 mm 1 mps 742 mmHg 42%
    10:00 +9°C° 0 mm 1 mps 741 mmHg 39%
    11:00 +10°C° 0 mm 1 mps 741 mmHg 36%
    12:00 +10°C° 0 mm 2 mps 740 mmHg 34%
    13:00 +11°C° 0 mm 1 mps 740 mmHg 34%
    14:00 +11°C° 0 mm 1 mps 740 mmHg 35%
    15:00 +11°C° 0 mm 1 mps 740 mmHg 36%
    16:00 +10°C° 0 mm 1 mps 740 mmHg 38%
    17:00 +9°C° 0 mm 1 mps 740 mmHg 41%
    18:00 +8°C° 0 mm 1 mps 740 mmHg 43%
    19:00 +7°C° 0 mm 1 mps 740 mmHg 42%
    20:00 +7°C° 0 mm 1 mps 740 mmHg 42%
    21:00 +7°C° 0 mm 1 mps 740 mmHg 41%
    22:00 +7°C° 0 mm 1 mps 740 mmHg 42%
    23:00 +7°C° 0 mm 1 mps 740 mmHg 43%
    Show more